Language: 


Des rapports , des résumés tant et plus, au choix de chacun....


Données statistiques de la station
Quotidien Rapport Janvier 26, 2017 Unités:  Anglais    Métrique   les deux
« Précédent Jour
Suivant Jour »
Quotidien Hebdomadaire Mensuel Annuel Actuel
  Haut: Bas: Moyen:
Température: 36.3 °F 25.5 °F 30 °F
Pt de rosée: 27.3 °F 19.2 °F 23.2 °F
Humidité: 88 % 62 % 76 %
Vitesse du vent: 16.8 mph 0 mph 6 mph
Rafales: 22.6 mph - -
Vent:- - SSE
Pression: 30.3 in 30 in -
Précipitation: 0 in    
Historical Graphs
 
 
Données statistiques pour Janvier 26, 2017
Heure Température Point de rosée Pression Vent Vitesse du vent Refales Humidité Pluie (taux horaire)
00:03 30.4 °F 27.3 °F 30.3 in South 3.8 mph 8.5 mph 88 % 0 in
00:08 30.4 °F 27.3 °F 30.3 in SSE 4.9 mph 10.5 mph 88 % 0 in
00:13 30.2 °F 27.1 °F 30.3 in SSE 5.6 mph 10.5 mph 88 % 0 in
00:18 30.2 °F 27.1 °F 30.3 in SSE 8.7 mph 8.7 mph 88 % 0 in
00:23 30.2 °F 27.1 °F 30.3 in SSE 3.6 mph 10.5 mph 88 % 0 in
00:28 30.2 °F 27.1 °F 30.3 in SSE 6.7 mph 10.5 mph 88 % 0 in
00:33 30.2 °F 27.1 °F 30.3 in SSE 8.1 mph 9.8 mph 88 % 0 in
00:38 30.2 °F 27.1 °F 30.3 in SSW 4.3 mph 9.8 mph 88 % 0 in
00:43 30 °F 27 °F 30.3 in South 5.6 mph 9.8 mph 88 % 0 in
00:48 29.8 °F 26.8 °F 30.3 in SSE 5.6 mph 8.7 mph 88 % 0 in
00:53 29.7 °F 26.6 °F 30.3 in SE 5.8 mph 8.9 mph 88 % 0 in
00:58 29.5 °F 26.1 °F 30.3 in SSE 5.8 mph 9.8 mph 87 % 0 in
01:03 29.5 °F 26.1 °F 30.3 in South 3.8 mph 9.8 mph 87 % 0 in
01:08 29.5 °F 26.1 °F 30.3 in SSE 5.4 mph 10.5 mph 87 % 0 in
01:13 29.1 °F 25.5 °F 30.3 in SSW 4 mph 10.5 mph 86 % 0 in
01:18 28.8 °F 25.2 °F 30.3 in SSE 7.6 mph 12.5 mph 86 % 0 in
01:23 28.6 °F 24.6 °F 30.3 in SSE 4 mph 12.5 mph 85 % 0 in
01:28 28.6 °F 24.6 °F 30.3 in SSW 3.8 mph 10.1 mph 85 % 0 in
01:33 28.6 °F 24.6 °F 30.3 in SSW 5.6 mph 9.4 mph 85 % 0 in
01:38 28.6 °F 24.6 °F 30.3 in South 3.6 mph 10.5 mph 85 % 0 in
01:43 28.6 °F 24.6 °F 30.3 in SSE 6 mph 12.3 mph 85 % 0 in
01:48 28.6 °F 24.4 °F 30.3 in SSW 10.3 mph 12.3 mph 85 % 0 in
01:53 28.6 °F 24.4 °F 30.3 in South 6.5 mph 10.3 mph 85 % 0 in
01:58 28.6 °F 24.4 °F 30.3 in South 9.6 mph 10.3 mph 85 % 0 in
02:03 28.6 °F 24.4 °F 30.3 in SSE 6.5 mph 10.1 mph 85 % 0 in
02:08 28.6 °F 24.4 °F 30.2 in South 7.2 mph 10.7 mph 85 % 0 in
02:13 28.6 °F 24.3 °F 30.2 in SSE 8.5 mph 13.9 mph 84 % 0 in
02:18 28.6 °F 24.1 °F 30.2 in SSE 6.3 mph 13.9 mph 83 % 0 in
02:23 28.6 °F 24.1 °F 30.3 in SSE 3.1 mph 8.7 mph 83 % 0 in
02:24 28.6 °F 24.1 °F 30.3 in South 3.8 mph 8.7 mph 83 % 0 in
02:29 28.6 °F 24.1 °F 30.3 in South 7.8 mph 9.6 mph 83 % 0 in
02:34 28.6 °F 24.1 °F 30.3 in South 4 mph 9.6 mph 83 % 0 in
02:39 28.6 °F 24.1 °F 30.3 in SSE 6.3 mph 11 mph 83 % 0 in
02:44 28.6 °F 23.7 °F 30.3 in SSE 3.1 mph 11 mph 82 % 0 in
02:49 28.6 °F 23.7 °F 30.3 in South 9.6 mph 10.5 mph 82 % 0 in
02:54 28.6 °F 23.7 °F 30.3 in SSE 8.7 mph 12.3 mph 82 % 0 in
02:59 28.6 °F 23.7 °F 30.3 in SSE 7.4 mph 12.3 mph 82 % 0 in
03:04 28.6 °F 23.7 °F 30.3 in South 7.8 mph 13.2 mph 82 % 0 in
03:09 28.6 °F 23.4 °F 30.2 in South 7.6 mph 12.3 mph 81 % 0 in
03:14 28.2 °F 23.2 °F 30.2 in SSE 4.9 mph 12.3 mph 81 % 0 in
03:19 28.2 °F 23.2 °F 30.2 in SSE 5.8 mph 14.5 mph 81 % 0 in
03:24 28 °F 22.6 °F 30.3 in SSE 8.1 mph 14.5 mph 80 % 0 in
03:29 28 °F 22.6 °F 30.3 in SSE 7.4 mph 13.2 mph 80 % 0 in
03:34 28 °F 22.6 °F 30.3 in SE 8.7 mph 12.1 mph 80 % 0 in
03:39 28 °F 23 °F 30.2 in SSE 7.8 mph 10.5 mph 81 % 0 in
03:44 28 °F 22.6 °F 30.2 in South 16.8 mph 16.8 mph 80 % 0 in
03:49 28 °F 22.6 °F 30.2 in SSE 8.7 mph 16.8 mph 80 % 0 in
03:54 27.9 °F 22.6 °F 30.2 in SE 6.3 mph 16.8 mph 80 % 0 in
03:59 27.9 °F 22.6 °F 30.2 in SSE 12.3 mph 12.5 mph 80 % 0 in
04:04 27.9 °F 22.1 °F 30.2 in SE 10.5 mph 13 mph 79 % 0 in
04:09 27.7 °F 21.9 °F 30.2 in SSE 6.3 mph 13 mph 79 % 0 in
04:14 27.3 °F 21.7 °F 30.2 in SSE 10.7 mph 12.1 mph 79 % 0 in
04:19 27.3 °F 21.7 °F 30.2 in South 7.6 mph 14.8 mph 79 % 0 in
04:24 27.3 °F 21.7 °F 30.2 in SSE 5.8 mph 14.8 mph 79 % 0 in
04:29 27.1 °F 21.6 °F 30.2 in SSE 5.4 mph 13 mph 79 % 0 in
04:34 27.1 °F 21.6 °F 30.2 in South 4.9 mph 13 mph 79 % 0 in
04:39 27.1 °F 21.6 °F 30.2 in SSE 5.4 mph 12.1 mph 79 % 0 in
04:44 27.1 °F 21.6 °F 30.2 in SSE 7.6 mph 12.1 mph 79 % 0 in
04:49 27.3 °F 21.7 °F 30.2 in SSE 10.7 mph 12.8 mph 79 % 0 in
04:54 27.3 °F 21.7 °F 30.2 in SSE 6.3 mph 12.8 mph 79 % 0 in
04:59 27.3 °F 21.7 °F 30.2 in South 8.1 mph 12.3 mph 79 % 0 in
05:04 27.1 °F 21.6 °F 30.2 in SSE 7.6 mph 15.4 mph 79 % 0 in
05:09 27.1 °F 21.6 °F 30.2 in South 7.8 mph 15.4 mph 79 % 0 in
05:14 27.1 °F 21.6 °F 30.2 in SSE 8.7 mph 13 mph 79 % 0 in
05:19 27.1 °F 21.6 °F 30.2 in South 4.7 mph 14.1 mph 79 % 0 in
05:24 27.1 °F 21.6 °F 30.2 in SSE 6.3 mph 14.1 mph 79 % 0 in
05:29 27.1 °F 21.6 °F 30.2 in SE 9.6 mph 13 mph 79 % 0 in
05:34 27.1 °F 21 °F 30.2 in SSE 9.8 mph 14.5 mph 78 % 0 in
05:39 27.1 °F 21 °F 30.2 in SSE 14.8 mph 17.2 mph 78 % 0 in
05:44 27.1 °F 21 °F 30.2 in SSE 5.4 mph 17.2 mph 78 % 0 in
05:49 27 °F 20.8 °F 30.2 in SSE 5.4 mph 14.8 mph 78 % 0 in
05:54 27 °F 20.8 °F 30.2 in South 8.1 mph 10.5 mph 78 % 0 in
05:59 26.8 °F 21 °F 30.2 in South 10.5 mph 12.5 mph 79 % 0 in
06:04 26.8 °F 20.8 °F 30.2 in SSE 11 mph 12.5 mph 78 % 0 in
06:09 26.4 °F 20.7 °F 30.2 in South 12.8 mph 14.5 mph 78 % 0 in
06:14 26.4 °F 20.7 °F 30.2 in South 10.5 mph 14.5 mph 78 % 0 in
06:19 26.4 °F 20.5 °F 30.2 in SSW 4.9 mph 15.4 mph 78 % 0 in
06:24 26.2 °F 20.3 °F 30.2 in SSW 12.8 mph 15.4 mph 78 % 0 in
06:29 26.2 °F 20.3 °F 30.2 in SSW 12.8 mph 16.1 mph 78 % 0 in
06:34 26.2 °F 19.9 °F 30.2 in SSE 6 mph 16.6 mph 77 % 0 in
06:39 26.2 °F 20.3 °F 30.2 in South 7.8 mph 16.6 mph 78 % 0 in
06:44 26.2 °F 20.3 °F 30.2 in SSE 16.1 mph 16.1 mph 78 % 0 in
06:50 26.1 °F 20.1 °F 30.2 in SSW 6.5 mph 16.1 mph 78 % 0 in
06:54 25.9 °F 19.9 °F 30.2 in SE 8.5 mph 16.1 mph 78 % 0 in
06:59 25.9 °F 19.9 °F 30.2 in SSE 8.1 mph 14.5 mph 78 % 0 in
07:04 25.9 °F 19.9 °F 30.2 in SE 9.8 mph 14.8 mph 78 % 0 in
07:09 25.5 °F 19.8 °F 30.2 in South 10.5 mph 14.8 mph 78 % 0 in
07:14 25.5 °F 19.8 °F 30.2 in SSE 10.1 mph 14.8 mph 78 % 0 in
07:19 25.5 °F 19.4 °F 30.2 in SSE 10.3 mph 22.6 mph 77 % 0 in
07:24 25.5 °F 19.4 °F 30.2 in SE 7.8 mph 22.6 mph 77 % 0 in
07:29 25.5 °F 19.4 °F 30.2 in SSE 5.6 mph 15.2 mph 77 % 0 in
07:34 25.5 °F 19.4 °F 30.2 in SSE 8.7 mph 13 mph 77 % 0 in
07:39 25.9 °F 19.6 °F 30.2 in SSE 16.3 mph 16.3 mph 77 % 0 in
07:44 25.9 °F 19.6 °F 30.2 in SE 10.5 mph 16.3 mph 77 % 0 in
07:49 25.9 °F 19.2 °F 30.2 in SE 10.3 mph 15.2 mph 76 % 0 in
07:55 26.1 °F 19.6 °F 30.2 in SSE 5.4 mph 16.1 mph 76 % 0 in
07:59 26.1 °F 19.6 °F 30.2 in SSE 7.4 mph 16.1 mph 76 % 0 in
08:04 26.1 °F 19.8 °F 30.2 in SSE 8.5 mph 12.8 mph 77 % 0 in
08:09 26.2 °F 19.9 °F 30.2 in SSE 8.1 mph 12.1 mph 77 % 0 in
08:14 26.2 °F 19.6 °F 30.2 in SSE 8.7 mph 12.3 mph 76 % 0 in
08:19 26.2 °F 19.9 °F 30.2 in SSE 9.6 mph 12.3 mph 77 % 0 in
08:25 26.2 °F 19.9 °F 30.2 in South 4.9 mph 13.6 mph 77 % 0 in
08:29 26.2 °F 19.9 °F 30.2 in South 4.9 mph 13.6 mph 77 % 0 in
08:35 26.4 °F 20.1 °F 30.2 in SSE 6 mph 13 mph 77 % 0 in
08:40 26.4 °F 19.8 °F 30.2 in South 5.6 mph 13 mph 76 % 0 in
08:45 26.2 °F 19.6 °F 30.2 in South 5.4 mph 10.5 mph 76 % 0 in
08:50 26.1 °F 19.6 °F 30.2 in SSE 7.8 mph 10.3 mph 76 % 0 in
08:55 26.1 °F 19.6 °F 30.2 in SSE 5.6 mph 9.6 mph 76 % 0 in
09:00 26.1 °F 19.6 °F 30.2 in SE 3.8 mph 10.3 mph 76 % 0 in
09:05 26.1 °F 19.8 °F 30.2 in ESE 4.9 mph 10.3 mph 77 % 0 in
09:10 26.1 °F 19.8 °F 30.2 in South 3.4 mph 7.8 mph 77 % 0 in
09:15 26.1 °F 19.8 °F 30.2 in SSE 6.3 mph 6.5 mph 77 % 0 in
09:20 26.1 °F 19.8 °F 30.2 in SSE 11.9 mph 11.9 mph 77 % 0 in
09:25 26.2 °F 19.9 °F 30.2 in SSE 9.6 mph 11.9 mph 77 % 0 in
09:30 26.2 °F 19.9 °F 30.2 in South 5.6 mph 10.7 mph 77 % 0 in
09:35 26.4 °F 20.1 °F 30.2 in South 7.8 mph 13.2 mph 77 % 0 in
09:40 26.8 °F 20.5 °F 30.2 in SSE 6.5 mph 13.2 mph 77 % 0 in
09:45 27 °F 20.7 °F 30.2 in SSE 7.8 mph 11 mph 77 % 0 in
09:50 27.1 °F 20.8 °F 30.2 in SSE 5.8 mph 11 mph 77 % 0 in
09:55 27.1 °F 20.7 °F 30.2 in South 4 mph 11 mph 76 % 0 in
10:00 27.3 °F 20.8 °F 30.2 in SSE 11 mph 11 mph 76 % 0 in
10:05 27.7 °F 20.7 °F 30.2 in SSE 7.2 mph 14.5 mph 75 % 0 in
10:10 27.7 °F 20.7 °F 30.2 in SSE 6.5 mph 14.5 mph 75 % 0 in
10:15 27.9 °F 21.4 °F 30.2 in SSE 3.1 mph 12.8 mph 76 % 0 in
10:20 28 °F 21.6 °F 30.2 in SSW 3.4 mph 11.9 mph 76 % 0 in
10:21 28 °F 21.6 °F 30.2 in South 5.6 mph 11.9 mph 76 % 0 in
10:26 28.2 °F 21.4 °F 30.2 in South 6 mph 11.9 mph 75 % 0 in
10:31 28.6 °F 21.6 °F 30.2 in SSE 7.4 mph 13.9 mph 75 % 0 in
10:36 28.6 °F 21.4 °F 30.2 in SSW 2.7 mph 13.9 mph 74 % 0 in
10:41 28.9 °F 21.7 °F 30.2 in East 10.7 mph 13 mph 74 % 0 in
10:46 29.1 °F 21.9 °F 30.2 in SSE 10.1 mph 10.7 mph 74 % 0 in
10:51 29.5 °F 21.7 °F 30.2 in South 6 mph 10.7 mph 73 % 0 in
10:56 29.5 °F 21.9 °F 30.2 in SSE 6.3 mph 10.7 mph 73 % 0 in
11:01 29.7 °F 22.1 °F 30.2 in East 5.6 mph 10.5 mph 73 % 0 in
11:06 29.7 °F 21.7 °F 30.2 in SSE 8.5 mph 9.8 mph 72 % 0 in
11:11 30.2 °F 22.6 °F 30.2 in SSW 6.3 mph 9.8 mph 73 % 0 in
11:16 30.2 °F 22.6 °F 30.2 in SSE 5.8 mph 13 mph 73 % 0 in
11:21 30.2 °F 21.9 °F 30.2 in SSE 7.8 mph 13 mph 71 % 0 in
11:26 30.2 °F 21.6 °F 30.2 in South 8.7 mph 14.8 mph 70 % 0 in
11:31 30.6 °F 21.9 °F 30.2 in SSE 6.3 mph 14.8 mph 70 % 0 in
11:36 30.9 °F 22.6 °F 30.2 in SSE 7.6 mph 12.5 mph 71 % 0 in
11:41 31.1 °F 22.8 °F 30.2 in South 3.8 mph 10.7 mph 71 % 0 in
11:46 31.5 °F 22.8 °F 30.2 in SSW 5.6 mph 10.7 mph 70 % 0 in
11:51 31.3 °F 22.3 °F 30.2 in South 9.6 mph 12.8 mph 69 % 0 in
11:56 31.5 °F 22.1 °F 30.2 in South 13.9 mph 13.9 mph 68 % 0 in
12:01 31.5 °F 22.1 °F 30.2 in SSE 7.8 mph 13.9 mph 68 % 0 in
12:06 31.5 °F 21.7 °F 30.2 in SE 5.6 mph 13.9 mph 67 % 0 in
12:11 31.8 °F 22.5 °F 30.2 in South 12.3 mph 13.9 mph 68 % 0 in
12:16 32.2 °F 22.8 °F 30.2 in SSE 6.3 mph 13.4 mph 68 % 0 in
12:21 32.4 °F 23 °F 30.2 in SSE 8.7 mph 13.4 mph 68 % 0 in
12:26 32.2 °F 22.5 °F 30.2 in South 7.4 mph 13 mph 67 % 0 in
12:27 32.2 °F 22.5 °F 30.2 in South 7.8 mph 13 mph 67 % 0 in
12:32 32.4 °F 22.6 °F 30.2 in SSE 12.8 mph 15.9 mph 67 % 0 in
12:37 32.7 °F 22.8 °F 30.2 in SSE 7.6 mph 15.9 mph 67 % 0 in
12:42 33.1 °F 23.5 °F 30.2 in South 4 mph 12.8 mph 68 % 0 in
12:47 33.3 °F 23.7 °F 30.2 in South 7.4 mph 12.8 mph 68 % 0 in
12:52 33.3 °F 23.2 °F 30.2 in South 6 mph 12.8 mph 66 % 0 in
12:57 33.4 °F 23.5 °F 30.2 in South 9.4 mph 11.2 mph 67 % 0 in
13:02 33.6 °F 23.4 °F 30.2 in South 5.4 mph 11.2 mph 66 % 0 in
13:07 33.6 °F 23.4 °F 30.2 in South 10.1 mph 12.1 mph 66 % 0 in
13:12 33.6 °F 23.2 °F 30.2 in South 10.7 mph 13 mph 65 % 0 in
13:17 33.8 °F 23.2 °F 30.2 in SSE 9.6 mph 13 mph 65 % 0 in
13:22 34 °F 23.4 °F 30.2 in South 7.4 mph 12.1 mph 65 % 0 in
13:27 34.3 °F 24.1 °F 30.2 in SSE 9.6 mph 10.3 mph 66 % 0 in
13:32 34.3 °F 23.7 °F 30.2 in SSE 7.6 mph 10.3 mph 65 % 0 in
13:37 34.3 °F 23.4 °F 30.2 in ESE 6.5 mph 10.5 mph 64 % 0 in
13:42 34.3 °F 23.4 °F 30.2 in SSE 11 mph 11 mph 64 % 0 in
13:47 34.5 °F 23.9 °F 30.2 in SSE 6.3 mph 13.2 mph 65 % 0 in
13:52 34.9 °F 24.3 °F 30.2 in SSE 4 mph 13.2 mph 65 % 0 in
13:57 35.1 °F 24.4 °F 30.2 in SSE 7.4 mph 12.8 mph 65 % 0 in
14:02 35.2 °F 24.6 °F 30.2 in SE 8.1 mph 8.1 mph 65 % 0 in
14:07 35.4 °F 24.8 °F 30.2 in SSE 3.1 mph 8.1 mph 65 % 0 in
14:12 35.4 °F 24.4 °F 30.2 in SSE 6.3 mph 10.5 mph 64 % 0 in
14:17 35.4 °F 24.3 °F 30.2 in SSE 7.4 mph 10.5 mph 63 % 0 in
14:22 35.4 °F 24.4 °F 30.1 in SSE 6.3 mph 9.8 mph 64 % 0 in
14:27 35.8 °F 24.6 °F 30.1 in SSE 4 mph 8.7 mph 64 % 0 in
14:32 36.1 °F 25 °F 30.1 in South 8.5 mph 8.5 mph 64 % 0 in
14:37 36.1 °F 25 °F 30.1 in SSE 4 mph 8.5 mph 64 % 0 in
14:42 36.1 °F 25.2 °F 30.1 in SSE 8.1 mph 8.5 mph 64 % 0 in
14:47 36.1 °F 24.6 °F 30.1 in SE 9.6 mph 9.6 mph 63 % 0 in
14:52 36 °F 24.1 °F 30.1 in SE 7.4 mph 10.3 mph 62 % 0 in
14:57 36.1 °F 24.3 °F 30.1 in SE 9.6 mph 10.3 mph 62 % 0 in
15:02 36.1 °F 24.3 °F 30.1 in South 7.4 mph 10.1 mph 62 % 0 in
15:07 36.1 °F 24.8 °F 30.1 in South 8.1 mph 9.4 mph 63 % 0 in
15:12 36.1 °F 24.4 °F 30.1 in SSE 5.8 mph 10.7 mph 62 % 0 in
15:17 36.1 °F 24.8 °F 30.1 in South 5.6 mph 10.7 mph 63 % 0 in
15:22 36.1 °F 24.8 °F 30.1 in SSE 4.3 mph 9.8 mph 63 % 0 in
15:27 36.1 °F 24.4 °F 30.1 in SSE 4.3 mph 10.3 mph 62 % 0 in
15:32 36.1 °F 24.8 °F 30.1 in SE 8.7 mph 10.3 mph 63 % 0 in
15:33 36.1 °F 24.8 °F 30.1 in SE 8.1 mph 10.3 mph 63 % 0 in
15:38 36.1 °F 24.8 °F 30.1 in SSE 7.8 mph 8.7 mph 63 % 0 in
15:43 36.1 °F 25.2 °F 30.1 in SSE 2.9 mph 8.1 mph 64 % 0 in
15:48 36.3 °F 25 °F 30.1 in South 3.6 mph 10.7 mph 63 % 0 in
15:53 36.3 °F 25.3 °F 30.1 in SE 7.2 mph 10.7 mph 64 % 0 in
15:58 36.1 °F 24.8 °F 30.1 in ESE 7.4 mph 8.1 mph 63 % 0 in
16:03 36.1 °F 24.8 °F 30.1 in SSE 6.3 mph 8.1 mph 63 % 0 in
16:08 36.1 °F 25.2 °F 30.1 in SSE 3.4 mph 7.8 mph 64 % 0 in
16:13 36.1 °F 25.2 °F 30.1 in SSE 3.8 mph 8.1 mph 64 % 0 in
16:18 36.1 °F 25.2 °F 30.1 in SSE 4 mph 8.1 mph 64 % 0 in
16:23 36.1 °F 25.3 °F 30.1 in SSE 5.6 mph 6.5 mph 65 % 0 in
16:28 35.8 °F 25.2 °F 30.1 in SSE 5.8 mph 6.5 mph 65 % 0 in
16:33 35.4 °F 24.8 °F 30.1 in SSE 6.3 mph 7.4 mph 65 % 0 in
16:38 35.4 °F 25.2 °F 30.1 in SSE 3.6 mph 7.4 mph 66 % 0 in
16:43 35.2 °F 25 °F 30.1 in SSE 4.3 mph 7.4 mph 66 % 0 in
16:48 35.1 °F 25.2 °F 30.1 in SSE 6.3 mph 7.4 mph 67 % 0 in
16:53 34.9 °F 25 °F 30.1 in SSE 5.8 mph 8.1 mph 67 % 0 in
16:58 34.5 °F 25.2 °F 30.1 in SSE 4 mph 8.1 mph 68 % 0 in
17:03 34.3 °F 24.8 °F 30.1 in SE 2.9 mph 5.8 mph 68 % 0 in
17:08 34.2 °F 25 °F 30.1 in SE 2.7 mph 5.8 mph 69 % 0 in
17:13 33.8 °F 24.6 °F 30.1 in ESE 3.8 mph 5.8 mph 69 % 0 in
17:18 33.6 °F 24.8 °F 30.1 in SE 3.1 mph 5.4 mph 70 % 0 in
17:23 33.4 °F 25 °F 30.1 in SSE 3.6 mph 5.8 mph 71 % 0 in
17:28 33.3 °F 24.8 °F 30.1 in SE 3.1 mph 5.8 mph 71 % 0 in
17:33 33.1 °F 24.6 °F 30.1 in SE 5.6 mph 5.8 mph 71 % 0 in
17:35 33.1 °F 25 °F 30.1 in South 4 mph 6 mph 72 % 0 in
17:40 33.1 °F 25 °F 30.1 in SE 2.5 mph 6 mph 72 % 0 in
17:45 32.7 °F 24.6 °F 30.1 in ESE 3.6 mph 5.4 mph 72 % 0 in
17:50 32.7 °F 24.6 °F 30.1 in SE 3.4 mph 5.8 mph 72 % 0 in
17:55 32.5 °F 24.8 °F 30.1 in SSE 3.8 mph 5.8 mph 73 % 0 in
18:00 32.5 °F 24.8 °F 30.1 in SE 3.6 mph 5.4 mph 73 % 0 in
18:05 32.4 °F 24.6 °F 30.1 in SE 2 mph 4.9 mph 73 % 0 in
18:10 32.2 °F 24.4 °F 30.1 in Calm   4 mph 73 % 0 in
18:15 32 °F 24.6 °F 30.1 in SE 2.5 mph 4.9 mph 74 % 0 in
18:20 31.8 °F 24.4 °F 30.1 in SE 2.9 mph 4.9 mph 74 % 0 in
18:25 31.8 °F 24.4 °F 30.1 in ESE 3.1 mph 4.9 mph 74 % 0 in
18:30 31.6 °F 24.6 °F 30.1 in ESE 3.6 mph 4.3 mph 75 % 0 in
18:35 31.5 °F 24.4 °F 30.1 in ENE 3.1 mph 4.7 mph 75 % 0 in
18:40 31.1 °F 24.1 °F 30.1 in East 2.5 mph 4.7 mph 75 % 0 in
18:45 30.7 °F 23.7 °F 30.1 in Calm   3.6 mph 75 % 0 in
18:50 30.4 °F 23.4 °F 30.1 in East 3.1 mph 4 mph 75 % 0 in
18:55 30.2 °F 23.5 °F 30.1 in East 3.4 mph 4 mph 76 % 0 in
19:00 30.2 °F 23.9 °F 30.1 in East 3.4 mph 3.4 mph 77 % 0 in
19:05 30.2 °F 23.9 °F 30.1 in East 2.5 mph 3.4 mph 77 % 0 in
19:10 29.8 °F 23.5 °F 30.1 in East 2.5 mph 3.1 mph 77 % 0 in
19:15 29.7 °F 23.4 °F 30.1 in Calm   2.9 mph 77 % 0 in
19:20 29.5 °F 23.2 °F 30.1 in East 3.4 mph 3.4 mph 77 % 0 in
19:25 29.5 °F 23.4 °F 30.1 in Calm   3.4 mph 78 % 0 in
19:27 29.5 °F 23.4 °F 30.1 in Calm   3.4 mph 78 % 0 in
19:32 29.1 °F 23.2 °F 30.1 in Calm   3.1 mph 78 % 0 in
19:37 29.1 °F 23.5 °F 30.1 in ESE 2.9 mph 3.6 mph 79 % 0 in
19:42 29.5 °F 23.5 °F 30.1 in ESE 3.8 mph 4 mph 79 % 0 in
19:47 29.5 °F 23.9 °F 30.1 in East 3.6 mph 4 mph 80 % 0 in
19:52 29.5 °F 24.1 °F 30.1 in East 2.9 mph 3.8 mph 80 % 0 in
19:57 29.5 °F 23.9 °F 30.1 in ESE 2.5 mph 3.8 mph 80 % 0 in
20:02 29.1 °F 23.7 °F 30.1 in ESE 2.7 mph 3.4 mph 80 % 0 in
20:07 29.1 °F 23.7 °F 30.1 in ESE 3.8 mph 4 mph 80 % 0 in
20:12 29.1 °F 23.7 °F 30.1 in East 3.6 mph 4 mph 80 % 0 in
20:17 29.1 °F 24.1 °F 30.1 in ESE 2.7 mph 4.9 mph 81 % 0 in
20:22 29.1 °F 24.1 °F 30.1 in ESE 4 mph 4.9 mph 81 % 0 in
20:27 29.1 °F 24.4 °F 30.1 in ESE 3.6 mph 4.3 mph 82 % 0 in
20:32 29.1 °F 24.4 °F 30.1 in ESE 2.7 mph 4.3 mph 82 % 0 in
20:37 28.9 °F 24.3 °F 30.1 in ESE 2.2 mph 4.3 mph 82 % 0 in
20:42 28.9 °F 24.3 °F 30.1 in ESE 2 mph 3.4 mph 82 % 0 in
20:47 28.8 °F 24.1 °F 30.1 in ESE 2.9 mph 3.4 mph 82 % 0 in
20:52 28.8 °F 24.1 °F 30.1 in ESE 2.5 mph 3.1 mph 82 % 0 in
20:57 28.6 °F 23.7 °F 30.1 in East 2.7 mph 3.4 mph 82 % 0 in
21:02 28.6 °F 23.7 °F 30.1 in East 2 mph 3.4 mph 82 % 0 in
21:07 28.6 °F 23.7 °F 30.1 in Calm   2.9 mph 82 % 0 in
21:12 28.2 °F 23.5 °F 30.1 in East 2.7 mph 3.1 mph 82 % 0 in
21:17 28.2 °F 23.7 °F 30.1 in ESE 2.7 mph 3.1 mph 83 % 0 in
21:22 28.6 °F 24.3 °F 30.1 in ESE 3.1 mph 4 mph 84 % 0 in
21:27 28.6 °F 24.4 °F 30.1 in SE 3.8 mph 4.3 mph 84 % 0 in
21:32 28.6 °F 24.4 °F 30.1 in ESE 3.6 mph 4.3 mph 84 % 0 in
21:37 28.8 °F 24.6 °F 30.1 in SSE 5.4 mph 7.6 mph 84 % 0 in
21:42 29.1 °F 25.2 °F 30.1 in SE 2.9 mph 7.6 mph 85 % 0 in
21:47 29.5 °F 25.3 °F 30.1 in ESE 4 mph 6 mph 85 % 0 in
21:52 29.5 °F 25.2 °F 30.1 in SSE 4 mph 5.4 mph 84 % 0 in
21:57 29.5 °F 25.3 °F 30.1 in SSE 2.9 mph 5.4 mph 84 % 0 in
22:02 29.5 °F 25.3 °F 30.1 in SSE 3.1 mph 5.4 mph 84 % 0 in
22:07 29.5 °F 25 °F 30.1 in SSE 2.7 mph 5.4 mph 83 % 0 in
22:12 29.5 °F 24.8 °F 30.1 in SE 2.7 mph 4.3 mph 83 % 0 in
22:17 29.5 °F 25 °F 30.1 in SSE 3.8 mph 5.8 mph 83 % 0 in
22:22 29.5 °F 25 °F 30.1 in South 4.9 mph 5.8 mph 83 % 0 in
22:27 29.5 °F 25 °F 30.1 in SE 3.4 mph 6.3 mph 83 % 0 in
22:32 29.5 °F 25 °F 30.1 in South 4.3 mph 6.3 mph 83 % 0 in
22:37 29.5 °F 24.4 °F 30 in SSE 2.9 mph 5.4 mph 82 % 0 in
22:42 29.5 °F 24.4 °F 30 in SSE 3.6 mph 6.5 mph 82 % 0 in
22:47 29.5 °F 24.4 °F 30 in SSE 4.7 mph 8.1 mph 82 % 0 in
22:57 29.1 °F 24.4 °F 30 in SSE 4.3 mph 6.5 mph 82 % 0 in
23:02 29.1 °F 24.4 °F 30 in SSE 4.9 mph 6.7 mph 82 % 0 in
23:07 28.9 °F 24.3 °F 30 in South 2 mph 6.7 mph 82 % 0 in
23:12 28.9 °F 24.3 °F 30 in SSE 2.9 mph 5.6 mph 82 % 0 in
23:17 28.8 °F 24.1 °F 30 in SSE 4.9 mph 6.3 mph 82 % 0 in
23:22 28.8 °F 24.1 °F 30 in SE 4 mph 6.7 mph 82 % 0 in
23:27 28.9 °F 24.4 °F 30 in ESE 4.3 mph 7.6 mph 83 % 0 in
23:32 28.8 °F 24.1 °F 30 in ESE 3.6 mph 7.6 mph 82 % 0 in
23:37 28.8 °F 24.1 °F 30 in SE 6 mph 7.6 mph 82 % 0 in
23:42 28.8 °F 24.1 °F 30 in SE 4 mph 6.5 mph 82 % 0 in
23:47 28.6 °F 23.7 °F 30 in SSE 3.1 mph 6 mph 82 % 0 in
23:52 28.6 °F 23.7 °F 30 in SSE 2.2 mph 7.4 mph 82 % 0 in
23:57 28.6 °F 23.7 °F 30 in SSE 2.9 mph 7.4 mph 82 % 0 in
Le Gheer Warneton
Courtoisie de Weather Underground - 2.25 mb

Mise a jour : 17-12-17 07:20:13
Généré par Cumulus 1.9.4 (1099)